Tracking 30703 objects as of 13-Jun-2025
HD Live streaming from Space Station
objects crossing your sky now

INTELSAT 601

Track INTELSAT 601 now!
INTELSAT 601 is classified as:


NORAD ID: 21765
Int'l Code: 1991-075A
Perigee: 35,985.2 km
Apogee: 35,989.2 km
Inclination: 13.0 °
Period: 1,446.0 minutes
Semi major axis: 42358 km
RCS: 16.4798 m2 (large)
Launch date: October 29, 1991
Source: International Telecommunications Satellite Organization (ITSO)
Launch site: FRENCH GUIANA (FRGUI)

64 C-band, 24 Ku-band; Broadcasting, business services, direct-to-home TV broadcasting, telecommunications, VSAT networks; Indian Ocean region.
Your satellite tracking list
Your tracking list is empty




NASA's NSSDC Master Catalog

Two Line Element Set (TLE):
1 21765U 91075A   25162.66032838  .00000088  00000-0  00000-0 0  9991
2 21765  13.0202  19.5830 0000473 348.2008 192.4948  0.99585701122686
Source of the keplerian elements: AFSPC